Humidity-temperature Sensor

Selected Measurement Type: Air Temperature

 
Air Temperature [°C]     6 entries per hour
Showing data from 5/28/2017 (00:00:00 Z) to 5/27/2017 (00:01:00 Z)
Previous Next [ Day | 3-Days | 7-Days ]
First Last
Prev [ Day | 3-Days | 7-Days ] Next
First Last

Start Time:     :
End Time:     :     
Time (in GMT) :00 :50 :40 :30 :20 :10
Previous Next [ Day | 3-Days | 7-Days ]
First Last
Prev [ Day | 3-Days | 7-Days ] Next
First Last


123 => good data
MM => data is determined as missing
-- => data not received/configured
Back to Top Back to Top
5/28/2017 00:00 to 23:10 27.76 27.78 27.78 27.76 27.71 27.73
5/27/2017 23:00 to 22:10 27.80 27.64 27.63 27.55 27.68 27.66
5/27/2017 22:00 to 21:10 27.62 27.56 27.57 27.60 27.61 27.58
5/27/2017 21:00 to 20:10 27.59 27.63 27.44 27.39 27.36 27.51
5/27/2017 20:00 to 19:10 27.46 27.41 27.39 27.44 27.38 27.53
5/27/2017 19:00 to 18:10 27.46 27.39 27.42 27.42 27.44 27.52
5/27/2017 18:00 to 17:10 27.46 27.49 27.36 27.38 27.44 27.45
5/27/2017 17:00 to 16:10 27.37 27.32 27.34 27.43 27.43 27.49
5/27/2017 16:00 to 15:10 27.59 27.45 27.52 27.47 27.30 27.30
5/27/2017 15:00 to 14:10 27.52 27.56 27.39 27.47 27.38 27.31
5/27/2017 14:00 to 13:10 27.33 27.18 27.22 27.12 27.11 27.16
5/27/2017 13:00 to 12:10 27.12 27.18 27.15 27.05 27.16 27.09
5/27/2017 12:00 to 11:10 27.16 27.02 27.03 27.06 27.22 27.16
5/27/2017 11:00 to 10:10 27.11 27.01 27.13 27.07 27.07 27.17
5/27/2017 10:00 to 9:10 27.16 27.13 27.11 27.21 27.11 27.10
5/27/2017 09:00 to 8:10 27.16 27.18 27.16 27.29 27.38 27.31
5/27/2017 08:00 to 7:10 27.21 27.31 27.27 27.36 27.34 27.40
5/27/2017 07:00 to 6:10 27.34 27.39 27.51 27.45 27.50 27.52
5/27/2017 06:00 to 5:10 27.54 27.55 27.43 27.58 27.54 27.52
5/27/2017 05:00 to 4:10 27.59 27.53 27.54 27.53 27.57 27.63
5/27/2017 04:00 to 3:10 27.65 27.63 27.63 27.73 27.72 27.68
5/27/2017 03:00 to 2:10 27.66 27.59 27.64 27.65 27.64 27.69
5/27/2017 02:00 to 1:10 27.66 27.60 27.64 27.58 27.63 27.58
5/27/2017 01:00 to 0:10 27.64 27.95 27.65 27.81 27.98 28.01